TimePST,TemperatureF,Dew PointF,Humidity,Sea Level PressureIn,VisibilityMPH,Wind Direction,Wind SpeedMPH,Gust SpeedMPH,PrecipitationIn,Events,Conditions,WindDirDegrees,DateUTC
12:15 AM,39.2,37.4,93,30.18,3.0,North,-9999.0,-,N/A,,Partly Cloudy,0,2013-11-09 08:15:00
12:35 AM,39.2,37.4,93,30.17,1.2,North,-9999.0,-,N/A,,Mostly Cloudy,0,2013-11-09 08:35:00
12:55 AM,39.2,37.4,93,30.17,1.5,North,-9999.0,-,N/A,,Mostly Cloudy,0,2013-11-09 08:55:00
1:15 AM,39.2,37.4,93,30.16,0.8,North,-9999.0,-,N/A,,Overcast,0,2013-11-09 09:15:00
1:35 AM,39.2,37.4,93,30.17,1.2,North,-9999.0,-,N/A,,Overcast,0,2013-11-09 09:35:00
1:55 AM,39.2,37.4,93,30.17,3.0,North,-9999.0,-,N/A,,Overcast,0,2013-11-09 09:55:00
2:15 AM,41.0,37.4,87,30.17,10.0,North,-9999.0,-,N/A,,Overcast,0,2013-11-09 10:15:00
2:35 AM,42.8,39.2,87,30.17,2.5,North,-9999.0,-,N/A,,Overcast,0,2013-11-09 10:35:00
2:55 AM,42.8,39.2,87,30.17,0.2,North,-9999.0,-,N/A,,Overcast,0,2013-11-09 10:55:00
3:15 AM,42.8,39.2,87,30.16,2.5,North,-9999.0,-,N/A,,Overcast,0,2013-11-09 11:15:00
3:35 AM,41.0,37.4,87,30.15,5.0,North,-9999.0,-,N/A,,Overcast,0,2013-11-09 11:35:00
3:55 AM,41.0,37.4,87,30.15,5.0,North,-9999.0,-,N/A,,Overcast,0,2013-11-09 11:55:00
4:15 AM,41.0,37.4,87,30.14,4.0,North,-9999.0,-,N/A,,Overcast,0,2013-11-09 12:15:00
4:35 AM,41.0,37.4,87,30.14,4.0,North,-9999.0,-,N/A,,Overcast,0,2013-11-09 12:35:00
4:55 AM,41.0,37.4,87,30.13,6.0,North,-9999.0,-,N/A,,Overcast,0,2013-11-09 12:55:00
5:15 AM,41.0,37.4,87,30.13,7.0,North,-9999.0,-,N/A,,Overcast,0,2013-11-09 13:15:00
5:35 AM,41.0,37.4,87,30.13,5.0,North,-9999.0,-,N/A,,Overcast,0,2013-11-09 13:35:00
5:55 AM,41.0,37.4,87,30.12,3.0,North,-9999.0,-,N/A,,Overcast,0,2013-11-09 13:55:00
6:15 AM,41.0,37.4,87,30.12,4.0,North,-9999.0,-,N/A,,Overcast,0,2013-11-09 14:15:00
6:35 AM,41.0,37.4,87,30.13,6.0,North,-9999.0,-,N/A,,Overcast,0,2013-11-09 14:35:00
6:55 AM,39.2,37.4,93,30.12,2.5,North,-9999.0,-,N/A,,Overcast,0,2013-11-09 14:55:00
7:15 AM,39.2,37.4,93,30.12,2.0,North,-9999.0,-,N/A,,Overcast,0,2013-11-09 15:15:00
7:35 AM,39.2,37.4,93,30.12,5.0,North,-9999.0,-,N/A,,Overcast,0,2013-11-09 15:35:00
7:55 AM,41.0,37.4,87,30.12,9.0,North,-9999.0,-,N/A,,Overcast,0,2013-11-09 15:55:00
8:15 AM,39.2,37.4,93,30.13,10.0,North,-9999.0,-,N/A,,Overcast,0,2013-11-09 16:15:00
8:35 AM,41.0,37.4,87,30.13,10.0,North,-9999.0,-,N/A,,Overcast,0,2013-11-09 16:35:00
8:55 AM,41.0,37.4,87,30.13,10.0,North,-9999.0,-,N/A,,Overcast,0,2013-11-09 16:55:00
9:15 AM,41.0,37.4,87,30.12,10.0,North,-9999.0,-,N/A,,Overcast,0,2013-11-09 17:15:00
9:35 AM,42.8,37.4,81,30.13,10.0,North,-9999.0,-,N/A,,Mostly Cloudy,0,2013-11-09 17:35:00
9:55 AM,42.8,37.4,81,30.12,10.0,North,-9999.0,-,N/A,,Mostly Cloudy,0,2013-11-09 17:55:00
10:15 AM,42.8,37.4,81,30.14,6.0,North,-9999.0,-,N/A,,Mostly Cloudy,0,2013-11-09 18:15:00
10:35 AM,42.8,39.2,87,30.13,7.0,North,-9999.0,-,N/A,,Overcast,0,2013-11-09 18:35:00
10:55 AM,44.6,39.2,81,30.13,10.0,North,-9999.0,-,N/A,,Mostly Cloudy,0,2013-11-09 18:55:00
11:15 AM,44.6,39.2,81,30.13,10.0,Calm,Calm,-,N/A,,Mostly Cloudy,0,2013-11-09 19:15:00
11:35 AM,46.4,39.2,76,30.12,8.0,North,-9999.0,-,N/A,,Mostly Cloudy,0,2013-11-09 19:35:00
11:55 AM,46.4,39.2,76,30.12,10.0,North,-9999.0,-,N/A,,Mostly Cloudy,0,2013-11-09 19:55:00
12:15 PM,46.4,39.2,76,30.11,10.0,North,-9999.0,-,N/A,,Overcast,0,2013-11-09 20:15:00
12:35 PM,46.4,39.2,76,30.10,10.0,North,-9999.0,-,N/A,,Overcast,0,2013-11-09 20:35:00
12:55 PM,46.4,41.0,81,30.09,10.0,North,-9999.0,-,N/A,,Overcast,0,2013-11-09 20:55:00
1:15 PM,46.4,39.2,76,30.10,10.0,North,-9999.0,-,N/A,,Overcast,0,2013-11-09 21:15:00
1:35 PM,46.4,39.2,76,30.10,10.0,North,-9999.0,-,N/A,,Overcast,0,2013-11-09 21:35:00
1:55 PM,46.4,39.2,76,30.10,10.0,North,-9999.0,-,N/A,,Overcast,0,2013-11-09 21:55:00
2:15 PM,46.4,39.2,76,30.10,10.0,North,-9999.0,-,N/A,,Overcast,0,2013-11-09 22:15:00
2:35 PM,46.4,39.2,76,30.10,10.0,North,-9999.0,-,N/A,,Overcast,0,2013-11-09 22:35:00
2:55 PM,46.4,41.0,81,30.10,10.0,North,-9999.0,-,N/A,,Overcast,0,2013-11-09 22:55:00
3:15 PM,46.4,41.0,81,30.11,10.0,North,-9999.0,-,N/A,,Overcast,0,2013-11-09 23:15:00
3:35 PM,46.4,41.0,81,30.10,10.0,North,-9999.0,-,N/A,,Overcast,0,2013-11-09 23:35:00
3:55 PM,46.4,42.8,87,30.10,10.0,North,-9999.0,-,N/A,,Overcast,0,2013-11-09 23:55:00
4:15 PM,46.4,42.8,87,30.10,10.0,North,-9999.0,-,N/A,,Overcast,0,2013-11-10 00:15:00
4:35 PM,46.4,42.8,87,30.10,10.0,North,-9999.0,-,N/A,,Overcast,0,2013-11-10 00:35:00
4:55 PM,46.4,42.8,87,30.10,10.0,North,-9999.0,-,N/A,,Overcast,0,2013-11-10 00:55:00
5:15 PM,46.4,42.8,87,30.10,10.0,North,-9999.0,-,N/A,,Overcast,0,2013-11-10 01:15:00
5:35 PM,46.4,42.8,87,30.09,10.0,North,-9999.0,-,N/A,,Overcast,0,2013-11-10 01:35:00
5:55 PM,46.4,42.8,87,30.10,10.0,North,-9999.0,-,N/A,,Overcast,0,2013-11-10 01:55:00
6:15 PM,46.4,42.8,87,30.10,10.0,North,-9999.0,-,N/A,,Overcast,0,2013-11-10 02:15:00
6:35 PM,44.6,41.0,87,30.10,10.0,North,-9999.0,-,N/A,,Overcast,0,2013-11-10 02:35:00
6:55 PM,46.4,41.0,81,30.10,10.0,North,-9999.0,-,N/A,,Overcast,0,2013-11-10 02:55:00
7:15 PM,46.4,41.0,81,30.09,10.0,North,-9999.0,-,N/A,,Overcast,0,2013-11-10 03:15:00
7:35 PM,46.4,41.0,81,30.09,10.0,North,-9999.0,-,N/A,,Overcast,0,2013-11-10 03:35:00
7:55 PM,46.4,41.0,81,30.10,10.0,North,-9999.0,-,N/A,,Overcast,0,2013-11-10 03:55:00
8:15 PM,46.4,42.8,87,30.10,10.0,North,-9999.0,-,N/A,,Overcast,0,2013-11-10 04:15:00
8:35 PM,46.4,41.0,81,30.10,10.0,North,-9999.0,-,N/A,,Overcast,0,2013-11-10 04:35:00
8:55 PM,46.4,42.8,87,30.10,10.0,North,-9999.0,-,N/A,,Overcast,0,2013-11-10 04:55:00
9:15 PM,46.4,42.8,87,30.10,10.0,North,-9999.0,-,N/A,,Overcast,0,2013-11-10 05:15:00
9:35 PM,44.6,42.8,93,30.10,10.0,North,-9999.0,-,N/A,,Overcast,0,2013-11-10 05:35:00
9:55 PM,46.4,42.8,87,30.11,10.0,North,-9999.0,-,N/A,,Overcast,0,2013-11-10 05:55:00
10:15 PM,46.4,41.0,81,30.11,10.0,North,-9999.0,-,N/A,,Overcast,0,2013-11-10 06:15:00
10:35 PM,46.4,41.0,81,30.11,10.0,North,-9999.0,-,N/A,,Overcast,0,2013-11-10 06:35:00
10:55 PM,46.4,41.0,81,30.10,10.0,North,-9999.0,-,N/A,,Overcast,0,2013-11-10 06:55:00
11:15 PM,46.4,41.0,81,30.10,10.0,North,-9999.0,-,N/A,,Overcast,0,2013-11-10 07:15:00
11:35 PM,46.4,41.0,81,30.10,10.0,North,-9999.0,-,N/A,,Overcast,0,2013-11-10 07:35:00
11:55 PM,46.4,41.0,81,30.11,10.0,North,-9999.0,-,N/A,,Overcast,0,2013-11-10 07:55:00